Погода в Калапане

Филиппины     13°24′19″N   121°10′33″E
темп.,
°C
ветер,
м/с
пор.,
м/с
влажн.,
%
обл.,
%
осадки,
мм/ч
давл.,
гПа
погр.,
м
8 мая, сб
сб823:00+28всв788248 1.2 1011555
02:00+28всв678032 3.0 1009585
05:00+28всв5681100 0.4 1009641
08:00+28всв567976 0.6 1011744
11:00+28в55785 0.1 1010407
14:00+29в567487 0.1 1008357
17:00+29в6777100 0.7 1007354
20:00+29всв5779100 1.3 1010391
9 мая, вс
вс923:00+28св5680100 2.9 1010439
02:00+28св568292 4.5 1008476
05:00+28всв568191 1.8 1009471
08:00+28всв557887 2.3 1010761
11:00+28в557770 0.1 1010438
14:00+29вюв4572100 0.1 1007253
17:00+29в57755 0.0 1007415
20:00+29всв677752 0.4 1009406
10 мая, пн
пн1023:00+28св57805 2.1 1010311
02:00+28св46815 4.3 1008358
05:00+27всв56815 2.6 1008523
08:00+28всв56815 4.9 1010635
11:00+28вюв5576100 0.6 1009523
14:00+29вюв467194 0.6 1007370
17:00+29в67763 0.3 1007485
20:00+29всв67774 1.0 1010456
11 мая, вт
вт1123:00+28всв56816 2.6 1010322
02:00+28св457718 5.4 1008349
05:00+27св468197 4.1 1009324
08:00+28всв5678100 7.9 1010425
11:00+29в5675100 1.0 1010529
14:00+29вюв4473100 1.0 1007258
17:00+29в5672100 0.0 1007304
20:00+29всв7878100 0.6 1009490
12 мая, ср
ср1223:00+28св688086 2.3 1009530
02:00+28всв6682100 5.6 1008543
05:00+28всв568077 1.1 1008613
08:00+28всв457870 1.3 1009713
11:00+28вюв45750 0.0 1009479
14:00+29вюв45704 0.0 1006243
17:00+30в57734 0.1 1006444
20:00+29всв7107754 2.6 1008550